| time (UTC) | temp C | wind direction | speed KPH | gust KPH | rain 1hr cm | rain 24hr cm | rain mn cm | humidity % | barometer mb |
| 20260503211518 | 22 | 341 | 8.0 | 17.7 | 0.00 | 0.00 | 0.00 | 54 | 1013.1 |
| 20260503210518 | 22 | 343 | 8.0 | 14.5 | 0.00 | 0.00 | 0.00 | 55 | 1013.2 |
| 20260503205519 | 22 | 329 | 8.0 | 14.5 | 0.00 | 0.00 | 0.00 | 56 | 1013.3 |
| 20260503204518 | 21 | 324 | 9.7 | 16.1 | 0.00 | 0.00 | 0.00 | 58 | 1013.3 |
| 20260503203539 | 21 | 322 | 9.7 | 14.5 | 0.00 | 0.00 | 0.00 | 59 | 1013.4 |
| 20260503202519 | 21 | 340 | 8.0 | 17.7 | 0.00 | 0.00 | 0.00 | 59 | 1013.4 |
| 20260503201519 | 21 | 327 | 6.4 | 12.9 | 0.00 | 0.00 | 0.00 | 59 | 1013.7 |
| 20260503200659 | 21 | 312 | 6.4 | 17.7 | 0.00 | 0.00 | 0.00 | 60 | 1013.8 |
| 20260503195519 | 20 | 335 | 6.4 | 14.5 | 0.00 | 0.00 | 0.00 | 62 | 1013.9 |
| 20260503194539 | 20 | 325 | 8.0 | 14.5 | 0.00 | 0.00 | 0.00 | 63 | 1014.0 |
| 20260503193519 | 21 | 330 | 6.4 | 17.7 | 0.00 | 0.00 | 0.00 | 62 | 1014.3 |
| 20260503192517 | 20 | 340 | 4.8 | 14.5 | 0.00 | 0.00 | 0.00 | 62 | 1014.4 |
| 20260503191520 | 20 | 353 | 6.4 | 16.1 | 0.00 | 0.00 | 0.00 | 63 | 1014.3 |
| 20260503190520 | 19 | 341 | 6.4 | 17.7 | 0.00 | 0.00 | 0.00 | 64 | 1014.3 |
| 20260503185520 | 20 | 356 | 6.4 | 17.7 | 0.00 | 0.00 | 0.00 | 63 | 1014.4 |
| 20260503184520 | 19 | 340 | 6.4 | 19.3 | 0.00 | 0.00 | 0.00 | 64 | 1014.6 |
| 20260503183517 | 19 | 344 | 8.0 | 14.5 | 0.00 | 0.00 | 0.00 | 65 | 1014.5 |
| 20260503182517 | 19 | 341 | 8.0 | 14.5 | 0.00 | 0.00 | 0.00 | 66 | 1014.4 |
| 20260503181520 | 19 | 339 | 8.0 | 16.1 | 0.00 | 0.00 | 0.00 | 66 | 1014.3 |
| 20260503180520 | 19 | 341 | 9.7 | 19.3 | 0.00 | 0.00 | 0.00 | 66 | 1014.7 |
| 20260503175538 | 19 | 343 | 6.4 | 17.7 | 0.00 | 0.00 | 0.00 | 65 | 1014.8 |
| 20260503174518 | 19 | 4 | 4.8 | 14.5 | 0.00 | 0.00 | 0.00 | 65 | 1015.0 |
| 20260503173518 | 18 | 340 | 8.0 | 17.7 | 0.00 | 0.00 | 0.00 | 66 | 1015.0 |
| 20260503172518 | 18 | 341 | 6.4 | 16.1 | 0.00 | 0.00 | 0.00 | 66 | 1015.0 |
| 20260503171541 | 18 | 352 | 8.0 | 14.5 | 0.00 | 0.00 | 0.00 | 66 | 1015.1 |
| 20260503170518 | 18 | 21 | 4.8 | 12.9 | 0.00 | 0.00 | 0.00 | 67 | 1015.3 |
| 20260503150520 | 16 | 357 | 3.2 | 8.0 | 0.00 | 0.00 | 0.00 | 74 | 1015.1 |
| 20260503130538 | 12 | 50 | 1.6 | 6.4 | 0.00 | 0.00 | 0.00 | 83 | 1013.7 |
| 20260503110519 | 12 | 88 | 0.0 | 3.2 | 0.00 | 0.00 | 0.00 | 82 | 1013.7 |
| 20260503081519 | 13 | 309 | 3.2 | 4.8 | 0.00 | 0.00 | 0.00 | 80 | 1013.8 |
| 20260503080519 | 13 | 8 | 3.2 | 4.8 | 0.00 | 0.00 | 0.00 | 79 | 1013.8 |
| 20260503072540 | 13 | 345 | 1.6 | 6.4 | 0.00 | 0.00 | 0.00 | 78 | 1013.7 |
| 20260503071519 | 13 | 3 | 1.6 | 4.8 | 0.00 | 0.00 | 0.00 | 77 | 1013.7 |
| 20260503070539 | 13 | 347 | 1.6 | 4.8 | 0.00 | 0.00 | 0.00 | 76 | 1013.7 |
| 20260503054517 | 15 | 320 | 1.6 | 3.2 | 0.00 | 0.00 | 0.00 | 73 | 1013.6 |
| 20260503053540 | 15 | 301 | 1.6 | 3.2 | 0.00 | 0.00 | 0.00 | 73 | 1013.6 |
| 20260503052518 | 15 | 314 | 1.6 | 4.8 | 0.00 | 0.00 | 0.00 | 72 | 1013.6 |
| 20260503051518 | 15 | 326 | 1.6 | 3.2 | 0.00 | 0.00 | 0.00 | 72 | 1013.6 |
| 20260503050518 | 15 | 31 | 1.6 | 4.8 | 0.00 | 0.00 | 0.00 | 71 | 1013.5 |
| 20260503045518 | 15 | 324 | 1.6 | 4.8 | 0.00 | 0.00 | 0.00 | 71 | 1013.4 |
| 20260503044538 | 15 | 316 | 1.6 | 4.8 | 0.00 | 0.00 | 0.00 | 71 | 1013.3 |
| 20260503043539 | 15 | 22 | 3.2 | 6.4 | 0.00 | 0.00 | 0.00 | 71 | 1013.3 |
| 20260503042519 | 16 | 49 | 1.6 | 6.4 | 0.00 | 0.00 | 0.00 | 68 | 1013.2 |
| 20260503041518 | 16 | 64 | 1.6 | 4.8 | 0.00 | 0.00 | 0.00 | 68 | 1013.1 |
| 20260503040518 | 16 | 357 | 1.6 | 4.8 | 0.00 | 0.00 | 0.00 | 67 | 1013.0 |
| 20260503035519 | 17 | 343 | 1.6 | 4.8 | 0.00 | 0.00 | 0.00 | 65 | 1013.0 |
| 20260503034519 | 17 | 343 | 1.6 | 6.4 | 0.00 | 0.00 | 0.00 | 61 | 1013.0 |
| 20260503033519 | 18 | 24 | 3.2 | 6.4 | 0.00 | 0.00 | 0.00 | 59 | 1013.0 |
| 20260503032519 | 19 | 48 | 3.2 | 9.7 | 0.00 | 0.00 | 0.00 | 57 | 1012.9 |
| 20260503031519 | 19 | 30 | 3.2 | 8.0 | 0.00 | 0.00 | 0.00 | 56 | 1012.8 |
| 20260503030519 | 19 | 20 | 3.2 | 9.7 | 0.00 | 0.00 | 0.00 | 56 | 1012.8 |
| 20260503025519 | 19 | 359 | 4.8 | 12.9 | 0.00 | 0.00 | 0.00 | 56 | 1012.7 |
| 20260503024519 | 20 | 335 | 4.8 | 11.3 | 0.00 | 0.00 | 0.00 | 56 | 1012.7 |
| 20260503023519 | 20 | 345 | 6.4 | 12.9 | 0.00 | 0.00 | 0.00 | 56 | 1012.7 |
| 20260503022520 | 20 | 354 | 8.0 | 19.3 | 0.00 | 0.00 | 0.00 | 55 | 1012.8 |
| 20260503021517 | 20 | 356 | 9.7 | 19.3 | 0.00 | 0.00 | 0.00 | 55 | 1012.9 |
| 20260503020517 | 20 | 346 | 9.7 | 20.9 | 0.00 | 0.00 | 0.00 | 54 | 1012.9 |
| 20260503015540 | 21 | 344 | 6.4 | 17.7 | 0.00 | 0.00 | 0.00 | 55 | 1013.2 |
| 20260503014520 | 21 | 348 | 8.0 | 19.3 | 0.00 | 0.00 | 0.00 | 56 | 1013.4 |
| 20260503013517 | 21 | 352 | 6.4 | 12.9 | 0.00 | 0.00 | 0.00 | 56 | 1013.4 |
| 20260503012518 | 21 | 337 | 8.0 | 17.7 | 0.00 | 0.00 | 0.00 | 56 | 1013.6 |
| 20260503011538 | 21 | 334 | 6.4 | 12.9 | 0.00 | 0.00 | 0.00 | 56 | 1013.8 |
| 20260503010518 | 21 | 329 | 4.8 | 12.9 | 0.00 | 0.00 | 0.00 | 56 | 1013.8 |
| 20260503005521 | 21 | 350 | 6.4 | 14.5 | 0.00 | 0.00 | 0.00 | 56 | 1013.9 |
| 20260503004518 | 21 | 344 | 8.0 | 17.7 | 0.00 | 0.00 | 0.00 | 56 | 1013.9 |
| 20260503003538 | 21 | 347 | 8.0 | 17.7 | 0.00 | 0.00 | 0.00 | 56 | 1013.8 |
| 20260503002518 | 21 | 345 | 9.7 | 20.9 | 0.00 | 0.00 | 0.00 | 55 | 1013.8 |
| 20260503001558 | 21 | 341 | 9.7 | 20.9 | 0.00 | 0.00 | 0.00 | 55 | 1013.9 |
| 20260503000519 | 21 | 345 | 8.0 | 16.1 | 0.00 | 0.00 | 0.00 | 54 | 1014.2 |
| 20260502235539 | 21 | 346 | 12.9 | 25.7 | 0.00 | 0.00 | 0.00 | 54 | 1014.1 |
| 20260502234538 | 21 | 353 | 8.0 | 14.5 | 0.00 | 0.00 | 0.00 | 55 | 1014.3 |
| 20260502233519 | 21 | 348 | 8.0 | 16.1 | 0.00 | 0.00 | 0.00 | 57 | 1014.5 |
| 20260502232519 | 20 | 354 | 8.0 | 16.1 | 0.00 | 0.00 | 0.00 | 60 | 1014.7 |
| 20260502231519 | 20 | 354 | 8.0 | 19.3 | 0.00 | 0.00 | 0.00 | 61 | 1014.8 |
| 20260502230519 | 20 | 335 | 8.0 | 17.7 | 0.00 | 0.00 | 0.00 | 62 | 1015.1 |
| 20260502225519 | 20 | 352 | 6.4 | 14.5 | 0.00 | 0.00 | 0.00 | 64 | 1015.2 |
| 20260502224519 | 20 | 353 | 9.7 | 17.7 | 0.00 | 0.00 | 0.00 | 64 | 1015.3 |
| 20260502223519 | 20 | 352 | 9.7 | 19.3 | 0.00 | 0.00 | 0.00 | 65 | 1015.5 |
| 20260502222519 | 20 | 350 | 8.0 | 14.5 | 0.00 | 0.00 | 0.00 | 65 | 1015.7 |
| 20260502221536 | 19 | 348 | 9.7 | 20.9 | 0.00 | 0.00 | 0.00 | 66 | 1015.7 |
| 20260502220520 | 19 | 342 | 9.7 | 17.7 | 0.00 | 0.00 | 0.00 | 66 | 1015.8 |
| 20260502215520 | 19 | 340 | 8.0 | 19.3 | 0.00 | 0.00 | 0.00 | 66 | 1016.0 |
| 20260502214520 | 18 | 339 | 9.7 | 20.9 | 0.00 | 0.00 | 0.00 | 67 | 1016.0 |
| 20260502213537 | 19 | 334 | 8.0 | 17.7 | 0.00 | 0.00 | 0.00 | 66 | 1016.3 |
| 20260502212517 | 18 | 348 | 9.7 | 20.9 | 0.00 | 0.00 | 0.00 | 67 | 1016.3 |